Regional Weather Roundup
Issued by NWS

Home | Current Version | Previous Version | Graphics & Text | Print | Product List | Glossary On
Versions: 1 2 3 4 5 6 7 8 9 10 11 12 13 14 15 16 17 18 19 20 21 22 23 24 25 26 27 28 29 30 31 32 33 34 35 36 37 38 39 40 41 42 43 44 45 46 47 48 49 50
000
ASUS45 KBOI 300510
RWRID
WEATHER ROUNDUP FOR IDAHO
NATIONAL WEATHER SERVICE BOISE ID
1100 PM MDT MON SEP 29 2014

NOTE: "FAIR" INDICATES FEW OR NO CLOUDS BELOW 12000 FEET
WITH NO SIGNIFICANT WEATHER AND/OR OBSTRUCTIONS TO VISIBILITY

IDZ012-014-300600-
SOUTHWEST IDAHO


CITY           SKY/WX    TMP DP  RH WIND       PRES   REMARKS
BOISE          CLOUDY    54  52  93 NE3       29.95S
CALDWELL       CLOUDY    54  45  71 CALM      29.96S
MOUNTAIN HOME  DRIZZLE   54  54 100 CALM      29.96R
$$

IDZ016-017-300600-
SOUTHCENTRAL IDAHO


CITY           SKY/WX    TMP DP  RH WIND       PRES   REMARKS
BURLEY         MOCLDY    51  48  89 W9        29.97R
JEROME         CLOUDY    50  49  96 SW6       29.98R
TWIN FALLS     CLOUDY    53  49  86 SW10      29.98S
$$

IDZ019>023-300600-
SOUTHEAST IDAHO


CITY           SKY/WX    TMP DP  RH WIND       PRES   REMARKS
IDAHO FALLS    CLOUDY    50  44  80 S9        29.96S
POCATELLO      RAIN      51  49  92 SW9       29.97S
REXBURG        CLOUDY    49  43  80 S8        29.95F
$$

IDZ006-010-011-018-031-032-300600-
CENTRAL IDAHO MOUNTAINS


CITY           SKY/WX    TMP DP  RH WIND       PRES   REMARKS
MCCALL         CLOUDY    46  45  96 CALM      29.96S
HAILEY         PTCLDY    45  43  93 SE5       29.99S
STANLEY          N/A     44  40  85 CALM      30.01R
SALMON         CLOUDY    52  48  87 S5        29.89S
CHALLIS        LGT RAIN  50  48  93 NW3       29.93R
$$

IDZ002-004-006-007-026-300600-
NORTHERN IDAHO


CITY           SKY/WX    TMP DP  RH WIND       PRES   REMARKS
LEWISTON       CLOUDY    62  53  72 E7        29.81R
LOWELL           N/A     56  55  97 CALM      29.87S
COEUR D`ALENE  MOCLDY    57  48  72 S14       29.77S
MULLAN PASS    MOCLDY    43  41  93 W7        29.88S
$$



USA.gov is the U.S. government's official web portal to all federal, state and local government web resources and services.